• In Russia
  • List of Countries
  • For 7 days
  • Water Temperature
  • Satellite Maps
  • Weather Map
  • Weather Widgets
  • user-avatar
    Login

    Hourly Weather Kalgoorlie

    Today, 17 December, Sunday

    Time Temperature Precipitation Wind Pressure Humidity
    00:00 +31°C° 0 mm 8 mps 720 mmHg 21%
    01:00 +29°C° 0 mm 8 mps 720 mmHg 25%
    02:00 +27°C° 0 mm 7 mps 720 mmHg 30%
    03:00 +26°C° 0 mm 7 mps 720 mmHg 33%
    04:00 +23°C° 0 mm 7 mps 720 mmHg 36%
    05:00 +22°C° 0 mm 7 mps 720 mmHg 40%
    06:00 +23°C° 0 mm 7 mps 720 mmHg 38%
    07:00 +23°C° 0 mm 7 mps 721 mmHg 36%
    08:00 +24°C° 0 mm 8 mps 721 mmHg 35%
    09:00 +27°C° 0 mm 8 mps 721 mmHg 29%
    10:00 +29°C° 0 mm 9 mps 721 mmHg 24%
    11:00 +32°C° 0 mm 10 mps 721 mmHg 19%
    12:00 +33°C° 0 mm 10 mps 720 mmHg 18%
    13:00 +33°C° 0 mm 11 mps 720 mmHg 18%
    14:00 +34°C° 0 mm 11 mps 719 mmHg 18%
    15:00 +33°C° 0 mm 12 mps 719 mmHg 20%
    16:00 +32°C° 0 mm 12 mps 719 mmHg 23%
    17:00 +31°C° 0 mm 12 mps 719 mmHg 26%
    18:00 +28°C° 0 mm 11 mps 719 mmHg 30%
    19:00 +26°C° 0 mm 11 mps 719 mmHg 35%
    20:00 +23°C° 0 mm 10 mps 720 mmHg 39%
    21:00 +22°C° 0 mm 10 mps 720 mmHg 39%
    22:00 +21°C° 0 mm 10 mps 720 mmHg 40%
    23:00 +19°C° 0 mm 9 mps 720 mmHg 40%

    Tomorrow, 18 December, Monday

    Time Temperature Precipitation Wind Pressure Humidity
    00:00 +18°C° 0 mm 9 mps 720 mmHg 41%
    01:00 +17°C° 0 mm 9 mps 720 mmHg 41%
    02:00 +16°C° 0 mm 9 mps 720 mmHg 42%
    03:00 +16°C° 0 mm 9 mps 720 mmHg 44%
    04:00 +15°C° 0 mm 9 mps 720 mmHg 47%
    05:00 +15°C° 0 mm 9 mps 720 mmHg 50%
    06:00 +16°C° 0 mm 10 mps 720 mmHg 47%
    07:00 +17°C° 0 mm 11 mps 720 mmHg 44%
    08:00 +18°C° 0 mm 12 mps 720 mmHg 41%
    09:00 +18°C° 0 mm 13 mps 720 mmHg 41%
    10:00 +18°C° 0 mm 13 mps 720 mmHg 41%
    11:00 +18°C° 0 mm 13 mps 720 mmHg 42%
    12:00 +20°C° 0.1 mm 14 mps 720 mmHg 38%
    13:00 +22°C° 0.1 mm 15 mps 720 mmHg 35%
    14:00 +24°C° 0.1 mm 15 mps 720 mmHg 32%
    15:00 +23°C° 0 mm 15 mps 720 mmHg 33%
    16:00 +23°C° 0 mm 14 mps 720 mmHg 34%
    17:00 +23°C° 0 mm 13 mps 720 mmHg 35%
    18:00 +22°C° 0 mm 12 mps 721 mmHg 38%
    19:00 +22°C° 0 mm 11 mps 722 mmHg 41%
    20:00 +21°C° 0 mm 10 mps 722 mmHg 43%
    21:00 +19°C° 0 mm 9 mps 723 mmHg 46%
    22:00 +19°C° 0 mm 9 mps 723 mmHg 48%
    23:00 +18°C° 0 mm 9 mps 723 mmHg 51%

    Day after tomorrow, 19 December, Tuesday

    Time Temperature Precipitation Wind Pressure Humidity
    00:00 +18°C° 0 mm 8 mps 724 mmHg 51%
    01:00 +17°C° 0 mm 7 mps 724 mmHg 52%
    02:00 +17°C° 0 mm 6 mps 724 mmHg 52%
    03:00 +16°C° 0 mm 6 mps 724 mmHg 53%
    04:00 +16°C° 0 mm 5 mps 725 mmHg 53%
    05:00 +15°C° 0 mm 5 mps 725 mmHg 53%
    06:00 +16°C° 0 mm 6 mps 726 mmHg 53%
    07:00 +18°C° 0 mm 7 mps 726 mmHg 52%
    08:00 +20°C° 0 mm 8 mps 727 mmHg 51%
    09:00 +21°C° 0 mm 8 mps 727 mmHg 46%
    10:00 +23°C° 0 mm 7 mps 727 mmHg 40%
    11:00 +24°C° 0 mm 7 mps 728 mmHg 35%
    12:00 +26°C° 0 mm 7 mps 727 mmHg 31%
    13:00 +27°C° 0 mm 6 mps 727 mmHg 27%
    14:00 +29°C° 0 mm 6 mps 727 mmHg 23%
    15:00 +29°C° 0 mm 6 mps 727 mmHg 22%
    16:00 +29°C° 0 mm 6 mps 727 mmHg 21%
    17:00 +29°C° 0 mm 6 mps 727 mmHg 21%
    18:00 +28°C° 0 mm 7 mps 728 mmHg 24%
    19:00 +26°C° 0 mm 7 mps 729 mmHg 27%
    20:00 +23°C° 0 mm 7 mps 729 mmHg 31%
    21:00 +22°C° 0 mm 7 mps 730 mmHg 34%
    22:00 +21°C° 0 mm 7 mps 731 mmHg 38%
    23:00 +18°C° 0 mm 7 mps 731 mmHg 41%

    20 December, Wednesday

    Time Temperature Precipitation Wind Pressure Humidity
    00:00 +18°C° 0 mm 7 mps 731 mmHg 45%
    01:00 +17°C° 0 mm 6 mps 731 mmHg 48%
    02:00 +16°C° 0 mm 6 mps 731 mmHg 51%
    03:00 +15°C° 0 mm 6 mps 731 mmHg 54%
    04:00 +15°C° 0 mm 5 mps 732 mmHg 57%
    05:00 +14°C° 0 mm 5 mps 732 mmHg 59%
    06:00 +16°C° 0 mm 5 mps 732 mmHg 55%
    07:00 +17°C° 0 mm 5 mps 733 mmHg 50%
    08:00 +20°C° 0 mm 5 mps 733 mmHg 45%
    09:00 +22°C° 0 mm 5 mps 733 mmHg 39%
    10:00 +25°C° 0 mm 4 mps 732 mmHg 33%
    11:00 +27°C° 0 mm 4 mps 732 mmHg 27%
    12:00 +28°C° 0 mm 3 mps 731 mmHg 23%
    13:00 +30°C° 0 mm 3 mps 731 mmHg 20%
    14:00 +31°C° 0 mm 3 mps 730 mmHg 16%
    15:00 +31°C° 0 mm 3 mps 730 mmHg 15%
    16:00 +33°C° 0 mm 3 mps 730 mmHg 14%
    17:00 +33°C° 0 mm 3 mps 730 mmHg 13%
    18:00 +31°C° 0 mm 3 mps 730 mmHg 13%
    19:00 +30°C° 0 mm 3 mps 730 mmHg 14%
    20:00 +29°C° 0 mm 3 mps 731 mmHg 14%
    21:00 +28°C° 0 mm 4 mps 731 mmHg 15%
    22:00 +28°C° 0 mm 4 mps 731 mmHg 16%
    23:00 +27°C° 0 mm 5 mps 731 mmHg 16%

    21 December, Thursday

    Time Temperature Precipitation Wind Pressure Humidity
    00:00 +26°C° 0 mm 5 mps 730 mmHg 18%
    01:00 +26°C° 0 mm 5 mps 730 mmHg 20%
    02:00 +25°C° 0 mm 5 mps 729 mmHg 22%
    03:00 +23°C° 0 mm 6 mps 729 mmHg 25%
    04:00 +22°C° 0 mm 6 mps 729 mmHg 29%
    05:00 +22°C° 0 mm 6 mps 730 mmHg 32%
    06:00 +24°C° 0 mm 7 mps 730 mmHg 29%
    07:00 +27°C° 0 mm 7 mps 730 mmHg 25%
    08:00 +29°C° 0 mm 8 mps 731 mmHg 22%
    09:00 +32°C° 0 mm 7 mps 730 mmHg 19%
    10:00 +34°C° 0 mm 6 mps 730 mmHg 15%
    11:00 +36°C° 0 mm 5 mps 730 mmHg 12%
    12:00 +36°C° 0 mm 5 mps 729 mmHg 11%
    13:00 +37°C° 0 mm 4 mps 728 mmHg 10%
    14:00 +38°C° 0 mm 4 mps 727 mmHg 9%
    15:00 +38°C° 0 mm 3 mps 727 mmHg 9%
    16:00 +38°C° 0 mm 3 mps 727 mmHg 9%
    17:00 +38°C° 0 mm 3 mps 726 mmHg 8%
    18:00 +37°C° 0 mm 3 mps 726 mmHg 9%
    19:00 +36°C° 0 mm 3 mps 726 mmHg 10%
    20:00 +35°C° 0 mm 3 mps 726 mmHg 11%
    21:00 +34°C° 0 mm 3 mps 726 mmHg 11%
    22:00 +34°C° 0 mm 4 mps 726 mmHg 11%
    23:00 +33°C° 0 mm 5 mps 725 mmHg 11%

    22 December, Friday

    Time Temperature Precipitation Wind Pressure Humidity
    00:00 +32°C° 0 mm 5 mps 724 mmHg 12%
    01:00 +32°C° 0 mm 6 mps 724 mmHg 12%
    02:00 +30°C° 0 mm 7 mps 723 mmHg 12%
    03:00 +30°C° 0 mm 7 mps 723 mmHg 14%
    04:00 +29°C° 0 mm 7 mps 723 mmHg 15%
    05:00 +29°C° 0 mm 7 mps 723 mmHg 17%
    06:00 +32°C° 0 mm 8 mps 724 mmHg 15%
    07:00 +34°C° 0 mm 9 mps 724 mmHg 14%
    08:00 +38°C° 0 mm 10 mps 724 mmHg 13%
    09:00 +40°C° 0 mm 10 mps 723 mmHg 11%
    10:00 +43°C° 0 mm 10 mps 723 mmHg 10%
    11:00 +45°C° 0 mm 10 mps 722 mmHg 8%
    12:00 +47°C° 0 mm 11 mps 722 mmHg 8%
    13:00 +47°C° 0 mm 11 mps 721 mmHg 8%
    14:00 +48°C° 0 mm 12 mps 721 mmHg 8%
    15:00 +47°C° 0 mm 12 mps 721 mmHg 8%
    16:00 +46°C° 0 mm 11 mps 721 mmHg 8%
    17:00 +44°C° 0 mm 11 mps 722 mmHg 8%
    18:00 +39°C° 0 mm 11 mps 722 mmHg 19%
    19:00 +34°C° 0 mm 11 mps 723 mmHg 29%
    20:00 +29°C° 0 mm 11 mps 723 mmHg 40%
    21:00 +27°C° 0 mm 10 mps 724 mmHg 46%
    22:00 +23°C° 0 mm 10 mps 724 mmHg 52%
    23:00 +21°C° 0 mm 9 mps 725 mmHg 59%
    Show more